User: anonymous   Login
Location: Oshawa
(43.9000°N, 78.8670°W)
Time: 17:05:15
(UTC-04:00)
Language:

Envisat - Orbit

View from above orbital plane
View from above orbital plane
View from above satellite
View from above satellite

Ground track
Ground track

The orbit data is extracted from the following two-line orbital elements,

1 27386U 02009A   16236.41510661 -.00000005  00000-0  12375-4 0  9997
2 27386  98.2774 287.4061 0001298  80.9878 279.1457 14.37873578758281
Epoch (UTC): 23 August 2016 09:57:45
Eccentricity: 0.0001298
inclination: 98.2774°
perigee height: 764 km
apogee height: 766 km
right ascension of ascending node: 287.4061°
argument of perigee: 80.9878°
revolutions per day: 14.37873578
mean anomaly at epoch: 279.1457°
orbit number at epoch: 75828

The dashed part of the orbit path shows where the satellite is in the earth's shadow,  

DLR